Location: Unspecified
(0.0000°N, 0.0000°E)
Time: 13:22:10
(UTC+02:00)

ASC 2 Rocket - Visible Passes

Search period start: 31 July 2015 00:00
Search period end: 10 August 2015 00:00
Orbit: 556 x 2347 km, 24.0° (Epoch: 29 July)

Date Brightness Start Highest point End Pass type
(mag) Time Alt. Az. Time Alt. Az. Time Alt. Az.
31 Jul 6.7 04:40:46 10° NE 04:40:46 10° NE 04:40:48 10° NE visible
31 Jul 5.9 06:35:42 10° NW 06:39:21 16° N 06:43:43 10° NNE visible
01 Aug 5.9 05:33:52 16° N 05:33:52 16° N 05:36:40 10° NNE visible
01 Aug 6.5 07:34:32 10° NNW 07:37:19 12° N 07:40:32 10° NNE visible
02 Aug 6.2 06:28:58 10° NNW 06:30:22 11° N 06:31:48 10° N visible
02 Aug 6.2 21:08:52 10° SSW 21:10:57 11° S 21:12:47 10° S visible
03 Aug 6.2 22:05:54 10° SSW 22:07:41 12° S 22:07:41 12° S visible
04 Aug 6.1 20:57:29 10° SSW 21:01:55 14° S 21:05:40 10° SSE visible
05 Aug 5.9 21:54:33 10° SSW 21:59:21 18° S 21:59:21 18° S visible
06 Aug 6.0 20:46:26 10° SW 20:52:51 18° S 20:57:47 11° SE visible
06 Aug 6.4 22:51:01 10° SW 22:52:39 15° SW 22:52:39 15° SW visible
07 Aug 5.5 21:43:31 10° SW 21:50:52 26° SSE 21:51:08 26° SSE visible
08 Aug 6.0 20:35:26 10° SW 20:43:41 24° S 20:49:39 11° ESE visible
08 Aug 5.8 22:40:20 10° SW 22:44:31 26° SW 22:44:31 26° SW visible
09 Aug 5.1 21:32:35 10° SW 21:41:38 36° SSE 21:43:05 33° SE visible
09 Aug 6.8 23:37:30 10° WSW 23:37:58 12° WSW 23:37:58 12° WSW visible
